Date,TemperatureHighF,TemperatureAvgF,TemperatureLowF,DewpointHighF,DewpointAvgF,DewpointLowF,HumidityHigh,HumidityAvg,HumidityLow,PressureMaxIn,PressureMinIn,WindSpeedMaxMPH,WindSpeedAvgMPH,GustSpeedMaxMPH,PrecipitationSumIn
2013-1-1,52.9,41.8,37.1,39.6,35.0,27.7,92,77,51,30.32,30.24,15,-605,18,0.00
2013-1-2,60.2,45.9,38.0,39.8,31.1,24.7,74,57,35,30.29,30.18,10,-606,10,0.00
2013-1-3,60.6,47.9,42.7,38.6,32.3,23.3,77,56,32,30.30,30.19,11,-644,11,0.00
2013-1-4,61.9,47.8,40.8,42.8,36.8,32.7,93,68,36,30.32,30.23,11,-602,14,0.00
2013-1-5,49.2,45.7,42.6,47.1,44.5,40.9,98,95,89,30.32,30.13,11,-827,11,0.55
2013-1-6,43.6,41.8,39.5,43.1,41.4,39.0,100,99,98,30.24,30.10,10,-973,11,0.08
2013-1-7,55.6,46.7,40.2,48.4,43.5,39.2,99,89,67,30.32,30.20,13,-618,18,0.00
2013-1-8,61.0,51.8,47.0,48.4,44.6,40.8,92,77,57,30.26,30.17,22,-599,22,0.00
2013-1-9,50.0,48.5,47.3,41.3,40.4,39.4,76,74,71,30.18,30.15,0,-999,0,0.00
2013-1-10,38.1,37.4,36.5,33.6,32.7,31.8,85,83,81,30.26,30.20,0,-999,0,0.03
2013-1-11,48.1,39.7,34.3,38.7,34.7,30.8,91,83,63,30.32,30.19,12,-610,12,0.01
2013-1-12,47.9,39.1,33.5,35.1,31.6,22.0,94,76,40,30.30,30.19,11,-495,13,0.00
2013-1-13,37.0,35.1,33.5,27.4,23.6,18.7,71,63,51,30.27,30.23,0,-999,15,0.00
2013-1-14,46.7,38.5,33.7,23.1,17.7,11.6,57,43,33,30.46,30.27,22,-599,22,0.00
2013-1-15,44.6,39.4,35.9,29.1,26.1,19.1,70,59,49,30.50,30.45,0,-999,0,0.00
2013-1-16,59.5,45.7,37.3,38.3,31.6,27.9,72,59,40,30.47,30.30,10,-622,10,0.00
2013-1-17,65.8,52.2,43.3,40.5,34.2,30.1,64,51,35,30.30,30.19,12,-598,15,0.00
2013-1-18,70.5,55.4,48.4,42.1,33.8,26.1,61,45,22,30.25,30.17,10,-628,10,0.00
2013-1-19,67.8,53.5,48.6,42.6,34.5,29.6,64,49,32,30.26,30.19,12,-654,14,0.00
2013-1-20,67.4,54.5,48.6,40.1,33.6,27.4,59,45,31,30.25,30.15,14,-608,14,0.00
2013-1-21,71.6,56.3,48.0,41.6,31.1,18.6,57,40,21,30.21,30.11,10,-628,12,0.00
2013-1-22,69.0,58.4,54.2,42.4,24.0,11.1,48,27,16,30.15,30.05,10,-691,10,0.00
2013-1-23,57.2,53.3,46.8,46.6,36.1,21.6,95,57,27,30.12,30.00,0,-999,0,0.05
2013-1-24,51.7,49.6,47.8,51.1,48.6,46.3,99,96,93,30.24,30.08,0,-999,0,0.45
2013-1-25,65.8,54.2,50.5,60.4,52.7,49.8,100,95,78,30.24,30.09,13,-627,16,0.01
2013-1-26,55.9,48.0,38.9,51.1,44.7,36.5,98,89,58,30.14,30.03,13,-580,15,0.00
2013-1-27,52.6,42.1,37.1,40.6,35.5,30.4,93,79,45,30.23,30.12,14,-587,16,0.00
2013-1-28,53.2,42.8,37.4,43.3,37.9,34.2,98,83,58,30.35,30.21,18,-686,18,0.00
2013-1-29,53.2,45.6,38.8,45.2,40.1,36.9,94,82,67,30.40,30.31,14,-681,15,0.00
2013-1-30,62.4,53.2,48.2,48.2,40.5,31.8,75,62,52,30.40,30.30,11,-656,12,0.00
2013-1-31,67.3,52.9,46.2,48.7,41.0,31.8,78,65,42,30.32,30.22,12,-653,12,0.00
2013-2-1,70.7,54.1,47.6,50.6,43.3,35.8,83,68,40,30.27,30.16,9,-646,9,0.00
2013-2-2,63.3,52.4,45.2,52.4,45.5,37.6,96,78,59,30.32,30.24,9,-623,10,0.00
2013-2-3,57.7,46.9,41.0,49.3,43.3,39.7,100,88,67,30.29,30.18,12,-708,13,0.00
2013-2-4,65.3,51.5,43.1,52.9,43.7,38.4,92,76,46,30.22,30.11,10,-583,10,0.00
2013-2-5,52.8,45.0,40.0,46.3,42.5,38.1,100,91,76,30.21,30.09,14,-638,16,0.00
2013-2-6,57.3,45.5,38.2,47.8,40.7,36.1,94,84,60,30.25,30.18,10,-580,11,0.00
2013-2-7,51.3,41.7,36.9,46.8,37.9,34.9,96,87,62,30.24,30.07,12,-631,12,0.10
2013-2-8,48.1,40.3,36.5,42.4,37.5,33.6,98,90,72,30.07,29.98,17,-622,23,0.07
2013-2-9,54.3,43.4,37.0,40.7,32.5,26.7,79,66,35,30.17,30.05,13,-585,13,0.00
2013-2-10,56.7,45.6,37.6,38.5,32.9,27.0,77,62,43,30.17,30.08,18,-612,18,0.00
2013-2-11,58.9,47.8,40.8,36.1,31.9,27.1,78,56,30,30.30,30.12,17,-575,18,0.00
2013-2-12,60.3,47.0,37.5,43.0,36.7,29.5,95,69,47,30.41,30.29,8,-602,9,0.00
2013-2-13,44.2,43.4,42.7,37.0,36.5,35.9,78,76,74,30.39,30.36,0,-999,0,0.00
2013-12-5,36.9,35.1,34.3,28.0,23.1,-99.9,70,62,53,30.24,30.19,0,-999,0,0.00
2013-12-6,51.4,40.5,33.1,44.6,33.7,26.2,97,78,53,30.26,30.01,9,-632,15,0.70
2013-12-7,46.9,38.1,30.0,45.0,33.0,25.7,100,83,55,30.29,29.99,16,-613,19,0.32
2013-12-8,43.9,33.8,29.1,31.3,25.8,19.8,89,73,50,30.36,30.26,12,-665,14,0.01
2013-12-9,50.2,37.3,28.8,25.5,20.2,14.7,67,51,33,30.46,30.35,11,-610,13,0.00
2013-12-10,55.0,42.3,34.0,32.0,25.3,21.0,62,51,36,30.45,30.25,13,-585,16,0.00
2013-12-11,62.1,47.5,40.6,33.3,26.6,20.3,57,45,30,30.27,30.21,13,-605,16,0.00
2013-12-12,64.9,51.3,42.3,30.7,24.4,18.0,62,36,18,30.29,30.21,8,-611,9,0.00
2013-12-13,60.3,49.3,39.9,37.2,32.3,29.1,86,53,34,30.37,30.25,16,-527,21,0.00
2013-12-14,64.6,51.9,45.9,40.8,35.4,30.7,62,54,40,30.41,30.33,12,-627,13,0.00
2013-12-15,69.1,54.2,47.5,38.7,33.8,28.4,57,47,29,30.39,30.25,13,-605,15,0.00
2013-12-16,73.6,59.0,50.5,37.2,29.8,20.1,52,34,20,30.25,30.16,13,-625,16,0.00
2013-12-17,77.7,64.8,58.6,41.7,31.3,21.7,43,29,16,30.18,30.03,5,-655,7,0.00
2013-12-18,62.4,52.4,42.6,48.9,40.4,31.6,94,67,35,30.04,29.82,8,-668,9,0.00
2013-12-19,54.1,45.8,40.3,41.0,35.3,22.8,94,69,44,29.97,29.76,19,-619,22,0.00
2013-12-20,56.8,47.6,39.2,23.2,15.6,8.8,45,29,15,30.05,29.94,15,-609,18,0.00
2013-12-21,63.3,52.8,45.3,46.4,39.6,20.1,83,62,33,30.12,30.01,19,-596,22,0.00
2013-12-22,64.9,54.3,48.4,44.2,37.7,34.9,71,54,36,30.33,30.11,16,-623,18,0.00
2013-12-23,69.3,54.6,48.0,43.3,39.1,35.6,68,57,34,30.42,30.32,8,-609,12,0.00
2013-12-24,69.1,56.0,49.5,42.3,37.8,35.4,60,51,35,30.36,30.24,12,-542,13,0.00
2013-12-25,71.8,56.4,50.5,41.5,36.3,30.7,58,47,33,30.29,30.22,6,-739,9,0.00
2013-12-26,75.9,59.4,52.3,42.1,34.3,26.1,52,40,27,30.27,30.19,7,-671,8,0.00
2013-12-27,72.9,60.1,51.6,40.1,32.3,23.4,61,37,21,30.24,30.12,11,-638,11,0.00
2013-12-28,63.7,55.1,45.5,33.4,28.6,19.8,61,37,24,30.14,30.05,20,-605,23,0.00
2013-12-29,69.4,56.7,49.5,28.0,23.5,17.6,39,28,18,30.21,30.10,13,-620,19,0.00
2013-12-30,66.7,55.8,50.0,32.4,25.4,16.7,40,31,21,30.29,30.20,10,-598,11,0.00
2013-12-31,69.3,54.0,47.3,40.1,26.6,14.5,59,36,22,30.29,30.17,10,-655,11,0.00
2014-1-1,69.6,56.5,49.5,33.8,27.6,22.5,46,34,20,30.24,30.15,9,-638,10,0.00
2014-1-2,72.1,58.5,52.7,39.2,32.8,28.6,47,38,28,30.18,30.07,11,-629,11,0.00